Вернуться в каталог

STARLINK-37853

АктивенСвязьSSO
NORAD 69498·PAYLOAD·🇺🇸 United States

Запущен Jun 11, 2026 с Vandenberg Space Force Base

Loading…

Ближайшие Пролёты (ближайшие 24 часа)

TLE

СвежийSource: CelesTrak SupGP

Эпоха: Sep 15, 2026, 04:18 UTC

1 69498C 26131W   26258.17965278 -.00053336  00000+0 -16557-2 0  2582
2 69498  97.2841 282.0745 0001548  99.7077 343.7838 15.33465648    16

Отслеживайте STARLINK-37853 в реальном времени с AllMySat

Download on the App Store